Le nostre stazioni meteo in Italia

Pubblicità
Il mio iltempo24.it
Pantelleria, Italia (16470): Temperatura & dewpoint: 17.05.2017 16:00:00 - 23.05.2017 16:00:00 (CEST)Pantelleria, Italia (16470): velocità del vento: 17.05.2017 16:00:00 - 23.05.2017 16:00:00 (CEST)Pantelleria, Italia (16470): direzione del vento: 17.05.2017 16:00:00 - 23.05.2017 16:00:00 (CEST)Pantelleria, Italia (16470): reduced air pressure: 17.05.2017 16:00:00 - 23.05.2017 16:00:00 (CEST)Pantelleria, Italia (16470): visibility: 17.05.2017 16:00:00 - 23.05.2017 16:00:00 (CEST)Pantelleria, Italia (16470): ore di luce: 17.05.2017 16:00:00 - 23.05.2017 16:00:00 (CEST)
Data & Tempo tt [°C] td [°C] ff [km/h] ff [kn] dd ppp [hPa] vv [km] sd [min]
23.05.2017 16:00:00 20,4 17,8 9 5 NNE 1018,3 20 60
23.05.2017 15:00:00 20,8 17,2 9 5 NE 1018,2 25 60
23.05.2017 14:00:00 21,0 14,2 11 6 NE 1018,4 25 60
23.05.2017 13:00:00 21,0 13,9 15 8 NE 1018,4 25 60
23.05.2017 12:00:00 20,6 14,3 9 5 NNE 1018,5 25 60
23.05.2017 11:00:00 22,2 9,7 4 2 O 1018,3 25 60
23.05.2017 10:00:00 19,8 17,8 13 7 ENE 1018,2 20 60
23.05.2017 09:00:00 19,4 15,7 8 4 ENE 1018,2 20 60
23.05.2017 08:00:00 18,6 13,0 5 3 E 1017,9 20 12
23.05.2017 07:00:00 15,6 10,6 0 0 N 1017,5 15 0
23.05.2017 06:00:00 - - - - - - - -
23.05.2017 05:00:00 - - - - - - - -
23.05.2017 04:00:00 - - - - - - - -
23.05.2017 03:00:00 - - - - - - - -
23.05.2017 02:00:00 - - - - - - - -
23.05.2017 01:00:00 - - - - - - - -
23.05.2017 00:00:00 - - - - - - - -
22.05.2017 23:00:00 - - - - - - - -
22.05.2017 22:00:00 - - - - - - - -
22.05.2017 21:00:00 - - - - - - - -
22.05.2017 20:00:00 18,6 14,5 4 2 NNE 1017,4 20 6
22.05.2017 19:00:00 19,0 14,1 5 3 NNE 1017,4 20 54
22.05.2017 18:00:00 20,0 13,2 5 3 NNE 1017,5 20 60
22.05.2017 17:00:00 20,0 15,2 8 4 NNE 1017,9 20 60
22.05.2017 16:00:00 20,6 13,5 9 5 NNE 1018,1 20 60
22.05.2017 15:00:00 20,4 13,8 9 5 NNE 1018,2 20 60
22.05.2017 14:00:00 20,6 15,4 9 5 NNE 1018,3 20 60
22.05.2017 13:00:00 19,0 15,3 9 5 NNE 1018,7 10 60
22.05.2017 12:00:00 19,8 16,1 11 6 N 1018,6 20 60
22.05.2017 11:00:00 19,8 15,9 11 6 ONO 1018,6 15 60
22.05.2017 10:00:00 18,0 14,7 9 5 N 1018,5 15 60
22.05.2017 09:00:00 17,4 13,9 9 5 NNO 1018,6 15 60
22.05.2017 08:00:00 16,6 13,5 5 3 NO 1018,4 12 0
22.05.2017 07:00:00 15,8 12,7 8 4 N 1018,1 8 0
22.05.2017 06:00:00 - - - - - - - -
22.05.2017 05:00:00 - - - - - - - -
22.05.2017 04:00:00 - - - - - - - -
22.05.2017 03:00:00 - - - - - - - -
22.05.2017 02:00:00 - - - - - - - -
22.05.2017 01:00:00 - - - - - - - -
22.05.2017 00:00:00 - - - - - - - -
21.05.2017 23:00:00 - - - - - - - -
21.05.2017 22:00:00 - - - - - - - -
21.05.2017 21:00:00 - - - - - - - -
21.05.2017 20:00:00 17,0 15,5 24 13 NNO 1017,7 20 54
21.05.2017 19:00:00 17,6 15,6 28 15 NNO 1017,5 20 60
21.05.2017 18:00:00 18,0 15,3 28 15 NNO 1017,6 20 60
21.05.2017 17:00:00 17,8 14,5 26 14 NNO 1018,0 20 60
21.05.2017 16:00:00 18,4 14,7 26 14 NNO 1018,3 20 60
21.05.2017 15:00:00 18,4 13,9 29 16 NNO 1018,4 20 60
21.05.2017 14:00:00 18,8 14,7 28 15 NO 1018,5 20 60
21.05.2017 13:00:00 18,6 13,7 29 16 NO 1019,1 20 60
21.05.2017 12:00:00 18,2 13,3 26 14 NNO 1019,2 20 60
21.05.2017 11:00:00 17,4 12,9 29 16 NNO 1019,2 20 60
21.05.2017 10:00:00 17,4 11,7 28 15 NNO 1018,8 20 60
21.05.2017 09:00:00 16,4 12,5 28 15 NNO 1018,8 20 60
21.05.2017 08:00:00 16,0 12,4 24 13 NO 1018,7 20 60
21.05.2017 07:00:00 15,0 10,2 28 15 NNO 1018,6 20 0
21.05.2017 06:00:00 - - - - - - - -
21.05.2017 05:00:00 - - - - - - - -
21.05.2017 04:00:00 - - - - - - - -
21.05.2017 03:00:00 - - - - - - - -
21.05.2017 02:00:00 - - - - - - - -
21.05.2017 01:00:00 - - - - - - - -
21.05.2017 00:00:00 - - - - - - - -
20.05.2017 23:00:00 - - - - - - - -
20.05.2017 22:00:00 - - - - - - - -
20.05.2017 21:00:00 - - - - - - - -
20.05.2017 20:00:00 16,8 13,3 22 12 NNO 1020,5 20 60
20.05.2017 19:00:00 17,4 13,9 16 9 NNO 1020,4 15 60
20.05.2017 18:00:00 17,4 13,1 24 13 NNO 1020,7 20 60
20.05.2017 17:00:00 18,0 12,0 22 12 NNO 1020,7 20 60
20.05.2017 16:00:00 18,8 12,3 22 12 NNO 1020,8 20 60
20.05.2017 15:00:00 18,8 11,9 29 16 NNO 1020,8 20 60
20.05.2017 14:00:00 18,4 11,9 26 14 N 1020,9 20 60
20.05.2017 13:00:00 18,4 13,0 31 17 NNO 1020,9 20 60
20.05.2017 12:00:00 18,8 12,8 24 13 NO 1020,8 20 60
20.05.2017 11:00:00 18,0 13,3 29 16 NO 1020,7 20 60
20.05.2017 10:00:00 17,6 12,9 21 11 NNO 1020,5 20 60
20.05.2017 09:00:00 17,0 12,5 24 13 NO 1020,4 15 60
20.05.2017 08:00:00 16,4 13,0 21 11 NO 1019,8 15 0
20.05.2017 07:00:00 15,4 12,4 16 9 NO 1019,4 12 0
20.05.2017 06:00:00 - - - - - - - -
20.05.2017 05:00:00 - - - - - - - -
20.05.2017 04:00:00 - - - - - - - -
20.05.2017 03:00:00 - - - - - - - -
20.05.2017 02:00:00 - - - - - - - -
20.05.2017 01:00:00 - - - - - - - -
20.05.2017 00:00:00 - - - - - - - -
19.05.2017 23:00:00 - - - - - - - -
19.05.2017 22:00:00 - - - - - - - -
19.05.2017 21:00:00 - - - - - - - -
19.05.2017 20:00:00 19,0 18,7 13 7 ONO 1018,3 15 36
19.05.2017 19:00:00 20,4 18,9 11 6 ONO 1017,5 20 60
19.05.2017 18:00:00 20,6 18,5 9 5 N 1017,5 20 60
19.05.2017 17:00:00 20,0 17,8 11 6 NNE 1017,4 20 60
19.05.2017 16:00:00 20,4 18,2 11 6 ENE 1017,3 20 60
19.05.2017 15:00:00 20,0 17,6 11 6 N 1017,9 20 60
19.05.2017 14:00:00 23,0 17,2 0 0 N 1017,4 20 60
19.05.2017 13:00:00 23,6 15,4 11 6 OSO 1017,5 20 60
19.05.2017 12:00:00 22,2 16,5 13 7 SSO 1017,4 20 60
19.05.2017 11:00:00 21,6 15,9 21 11 SSO 1017,1 20 60
19.05.2017 10:00:00 21,2 14,4 26 14 SSO 1016,6 20 60
19.05.2017 09:00:00 20,4 14,5 31 17 SSO 1016,3 20 60
19.05.2017 08:00:00 19,0 13,2 24 13 S 1015,9 20 60
19.05.2017 07:00:00 17,0 13,5 26 14 S 1015,5 12 0
19.05.2017 06:00:00 - - - - - - - -
19.05.2017 05:00:00 - - - - - - - -
19.05.2017 04:00:00 - - - - - - - -
19.05.2017 03:00:00 - - - - - - - -
19.05.2017 02:00:00 - - - - - - - -
19.05.2017 01:00:00 - - - - - - - -
19.05.2017 00:00:00 - - - - - - - -
18.05.2017 23:00:00 - - - - - - - -
18.05.2017 22:00:00 - - - - - - - -
18.05.2017 21:00:00 - - - - - - - -
18.05.2017 20:00:00 21,0 13,0 5 3 S 1014,4 15 30
18.05.2017 19:00:00 22,0 15,8 5 3 E 1014,5 15 18
18.05.2017 18:00:00 22,4 16,7 16 9 SO 1014,4 15 60
18.05.2017 17:00:00 24,0 13,5 11 6 SO 1014,6 15 60
18.05.2017 16:00:00 22,0 15,1 9 5 N 1014,9 15 60
18.05.2017 15:00:00 23,2 11,6 11 6 NNE 1015,2 20 60
18.05.2017 14:00:00 21,2 15,5 11 6 NNE 1015,8 20 60
18.05.2017 13:00:00 21,6 15,9 11 6 ENE 1016,0 20 60
18.05.2017 12:00:00 24,0 17,7 5 3 NE 1016,0 20 60
18.05.2017 11:00:00 21,6 17,6 11 6 ENE 1016,0 20 60
18.05.2017 10:00:00 20,4 15,8 5 3 ENE 1016,2 20 60
18.05.2017 09:00:00 19,6 14,8 5 3 E 1016,2 15 60
18.05.2017 08:00:00 18,0 15,2 13 7 SO 1016,3 12 60
18.05.2017 07:00:00 15,6 13,3 5 3 SSO 1016,2 20 -
18.05.2017 06:00:00 - - - - - - - -
18.05.2017 05:00:00 - - - - - - - -
18.05.2017 04:00:00 - - - - - - - -
18.05.2017 03:00:00 - - - - - - - -
18.05.2017 02:00:00 - - - - - - - -
18.05.2017 01:00:00 - - - - - - - -
18.05.2017 00:00:00 - - - - - - - -
17.05.2017 23:00:00 - - - - - - - -
17.05.2017 22:00:00 - - - - - - - -
17.05.2017 21:00:00 - - - - - - - -
17.05.2017 20:00:00 17,8 16,8 5 3 N 1018,2 20 60
17.05.2017 19:00:00 18,8 16,2 15 8 NNO 1018,1 20 60
17.05.2017 18:00:00 19,0 16,6 15 8 NNO 1018,6 20 60
17.05.2017 17:00:00 19,0 17,3 15 8 NNO 1018,9 15 60
17.05.2017 16:00:00 19,6 17,2 18 10 NO 1019,2 12 60

tt = Temperatura
td = dewpoint
ff = velocità del vento
dd = direzione del vento
ppp = reduced air pressure
vv = visibility
sd = ore di luce

Stazioni seguenti

WeatherPro
AMSI
MeteoEarth